Terminal Aerodrome Forecast
Issued by NWS

Home | Current Version | Previous Version | Graphics & Text | Print | Product List | Glossary On
Versions: 1 2 3 4 5 6 7 8 9 10 11 12 13 14 15 16 17 18 19 20 21 22 23 24 25 26 27 28 29 30 31 32
000
FTUS43 KLOT 231100
TAFDPA
TAF
KDPA 231120Z 2312/2412 03007KT P6SM FEW250
     FM231500 06010G15KT P6SM SCT200
     FM232300 09007KT P6SM BKN090 OVC250
     FM240500 10006KT P6SM VCSH BKN060 OVC090 PROB30 2405/2409 P6SM
      -SHRA=

USA.gov is the U.S. government's official web portal to all federal, state and local government web resources and services.